CPA1495 VHHH-ZJHK

Flight info

Callsign CPA1495
Flight time 0h 55m
Altitude 32000
Route PECAN V10 SIKOU A202 ISBIG
Aircraft B77W/H-SDE1E2E3FGHIJ2J3J4J5M1RWXY/LB1D1

Departure

Time 2026-04-26 03:45
Airport Hong Kong International Airport (VHHH)

Arrival

Time 2026-04-26 04:40
Airport Haikou Meilan International Airport (ZJHK)
Time Latitude Longitude Altitude Speed Heading
2026-04-26 03:17 22.30873 113.91729 37 ft 0 kts 70°
2026-04-26 03:25 22.30812 113.91770 37 ft 0 kts 70°
2026-04-26 03:29 22.30812 113.91768 37 ft 2 kts 70°
2026-04-26 03:30 22.30803 113.91742 36 ft 4 kts 70°
2026-04-26 03:30 22.30794 113.91715 33 ft 4 kts 68°
2026-04-26 03:30 22.30781 113.91690 32 ft 4 kts 46°
2026-04-26 03:30 22.30761 113.91673 35 ft 4 kts 18°
2026-04-26 03:31 22.30737 113.91671 34 ft 2 kts 341°
2026-04-26 03:31 22.30715 113.91679 35 ft 4 kts 341°
2026-04-26 03:31 22.30701 113.91684 35 ft 0 kts 341°
2026-04-26 03:34 22.30704 113.91683 36 ft 1 kts 341°
2026-04-26 03:34 22.30716 113.91679 35 ft 2 kts 341°
2026-04-26 03:34 22.30737 113.91671 34 ft 4 kts 341°
2026-04-26 03:35 22.30766 113.91660 34 ft 5 kts 341°
2026-04-26 03:35 22.30803 113.91647 37 ft 6 kts 341°
2026-04-26 03:35 22.30850 113.91629 37 ft 9 kts 341°
2026-04-26 03:35 22.30910 113.91607 37 ft 9 kts 341°
2026-04-26 03:36 22.30972 113.91583 37 ft 9 kts 341°
2026-04-26 03:36 22.31038 113.91559 37 ft 11 kts 341°
2026-04-26 03:36 22.31122 113.91528 37 ft 14 kts 341°
2026-04-26 03:36 22.31224 113.91490 37 ft 17 kts 341°
2026-04-26 03:37 22.31323 113.91424 37 ft 18 kts 285°
2026-04-26 03:37 22.31294 113.91291 37 ft 18 kts 251°
2026-04-26 03:37 22.31252 113.91161 37 ft 18 kts 251°
2026-04-26 03:37 22.31210 113.91031 37 ft 18 kts 251°
2026-04-26 03:38 22.31168 113.90901 37 ft 18 kts 251°
2026-04-26 03:38 22.31127 113.90772 37 ft 18 kts 251°
2026-04-26 03:38 22.31086 113.90641 37 ft 18 kts 251°
2026-04-26 03:38 22.31043 113.90510 37 ft 19 kts 250°
2026-04-26 03:39 22.31004 113.90394 37 ft 8 kts 250°
2026-04-26 03:39 22.30986 113.90337 37 ft 8 kts 250°
2026-04-26 03:39 22.30968 113.90277 37 ft 9 kts 250°
2026-04-26 03:39 22.30948 113.90215 37 ft 9 kts 250°
2026-04-26 03:40 22.30938 113.90186 37 ft 1 kts 251°
2026-04-26 03:40 22.30935 113.90176 37 ft 2 kts 251°
2026-04-26 03:40 22.30934 113.90173 37 ft 0 kts 251°
2026-04-26 03:41 22.30933 113.90171 37 ft 1 kts 251°
2026-04-26 03:41 22.30930 113.90161 37 ft 3 kts 251°
2026-04-26 03:41 22.30917 113.90121 37 ft 9 kts 251°
2026-04-26 03:42 22.30890 113.90037 37 ft 15 kts 251°
2026-04-26 03:42 22.30850 113.89915 37 ft 18 kts 253°
2026-04-26 03:42 22.30867 113.89847 37 ft 8 kts 319°
2026-04-26 03:42 22.30921 113.89820 37 ft 9 kts 341°
2026-04-26 03:43 22.30976 113.89799 36 ft 0 kts 341°
2026-04-26 03:43 22.31003 113.89789 35 ft 8 kts 341°
2026-04-26 03:43 22.31066 113.89785 35 ft 10 kts 28°
2026-04-26 03:44 22.31106 113.89847 35 ft 10 kts 68°
2026-04-26 03:44 22.31146 113.89967 35 ft 39 kts 71°
2026-04-26 03:44 22.31340 113.90569 36 ft 128 kts 71°
2026-04-26 03:44 22.31732 113.91722 41 ft 195 kts 71°
2026-04-26 03:45 22.32186 113.93237 379 ft 225 kts 72°
2026-04-26 03:45 22.32613 113.94900 1292 ft 230 kts 77°
2026-04-26 03:45 22.32925 113.96565 2438 ft 223 kts 79°
2026-04-26 03:45 22.33351 113.98249 2980 ft 247 kts 73°
2026-04-26 03:46 22.33788 114.00120 3635 ft 263 kts 77°
2026-04-26 03:46 22.34164 114.02085 4530 ft 270 kts 79°
2026-04-26 03:46 22.34424 114.04103 5361 ft 275 kts 92°
2026-04-26 03:47 22.32657 114.07664 7165 ft 279 kts 145°
2026-04-26 03:47 22.30917 114.08538 7955 ft 284 kts 168°
2026-04-26 03:47 22.28935 114.08730 8748 ft 289 kts 181°
2026-04-26 03:47 22.26898 114.08734 9588 ft 295 kts 181°
2026-04-26 03:48 22.24826 114.08722 10383 ft 302 kts 182°
2026-04-26 03:48 22.22647 114.08686 10762 ft 327 kts 182°
2026-04-26 03:48 22.20268 114.08649 10972 ft 355 kts 181°
2026-04-26 03:48 22.18601 114.08761 11040 ft 370 kts 170°
2026-04-26 03:49 22.16179 114.09879 11513 ft 389 kts 143°
2026-04-26 03:49 22.14330 114.12057 12268 ft 399 kts 121°
2026-04-26 03:49 22.13059 114.14736 13047 ft 405 kts 116°
2026-04-26 03:49 22.11819 114.17494 14006 ft 410 kts 116°
2026-04-26 03:50 22.10546 114.20252 14959 ft 413 kts 117°
2026-04-26 03:50 22.09238 114.23022 15893 ft 416 kts 117°
2026-04-26 03:50 22.07837 114.25741 16792 ft 416 kts 125°
2026-04-26 03:50 22.05828 114.27933 17556 ft 418 kts 144°
2026-04-26 03:51 22.03395 114.29698 18215 ft 426 kts 146°
2026-04-26 03:51 22.00926 114.31502 18796 ft 428 kts 149°
2026-04-26 03:51 21.98140 114.32729 19261 ft 438 kts 169°
2026-04-26 03:51 21.95098 114.32846 19996 ft 440 kts 188°
2026-04-26 03:52 21.92150 114.32009 20744 ft 440 kts 204°
2026-04-26 03:52 21.89528 114.30321 21409 ft 438 kts 220°
2026-04-26 03:52 21.87134 114.28246 21938 ft 446 kts 221°
2026-04-26 03:52 21.84750 114.26134 22604 ft 450 kts 221°
2026-04-26 03:53 21.82323 114.23997 23419 ft 451 kts 221°
2026-04-26 03:53 21.79875 114.21869 24079 ft 454 kts 221°
2026-04-26 03:53 21.77384 114.19731 24618 ft 459 kts 221°
2026-04-26 03:53 21.74859 114.17582 25137 ft 463 kts 221°
2026-04-26 03:54 21.72319 114.15427 25685 ft 468 kts 220°
2026-04-26 03:54 21.69753 114.13252 26247 ft 471 kts 220°
2026-04-26 03:54 21.67172 114.11063 26772 ft 475 kts 220°
2026-04-26 03:54 21.64478 114.08999 27198 ft 481 kts 212°
2026-04-26 03:55 21.61377 114.07715 27598 ft 489 kts 195°
2026-04-26 03:55 21.58024 114.06979 28066 ft 494 kts 194°
2026-04-26 03:55 21.54649 114.06238 28551 ft 496 kts 195°
2026-04-26 03:55 21.51272 114.05421 29040 ft 499 kts 196°
2026-04-26 03:56 21.47888 114.04549 29466 ft 502 kts 197°
2026-04-26 03:56 21.44499 114.03608 29932 ft 502 kts 200°
2026-04-26 03:56 21.41362 114.02059 30425 ft 492 kts 215°
2026-04-26 03:56 21.38534 113.99993 30892 ft 490 kts 218°
2026-04-26 03:57 21.35750 113.97895 31461 ft 488 kts 218°
2026-04-26 03:57 21.32965 113.95826 31980 ft 487 kts 218°
2026-04-26 03:57 21.30147 113.93779 32003 ft 488 kts 218°
2026-04-26 03:58 21.24545 113.89815 32024 ft 484 kts 218°
2026-04-26 03:58 21.18898 113.85848 32033 ft 486 kts 218°
2026-04-26 03:59 21.13252 113.81867 32028 ft 484 kts 219°
2026-04-26 03:59 21.10675 113.79577 32025 ft 478 kts 230°
2026-04-26 03:59 21.08605 113.76823 32031 ft 473 kts 240°
2026-04-26 04:00 21.05840 113.70548 32019 ft 464 kts 254°
2026-04-26 04:00 21.03800 113.63978 32014 ft 466 kts 255°
2026-04-26 04:01 21.01727 113.57405 32024 ft 466 kts 254°
2026-04-26 04:01 20.99613 113.50842 32018 ft 466 kts 254°
2026-04-26 04:02 20.97498 113.44340 32019 ft 465 kts 254°
2026-04-26 04:02 20.95366 113.37803 32018 ft 465 kts 254°
2026-04-26 04:03 20.93235 113.31272 32019 ft 464 kts 254°
2026-04-26 04:03 20.91106 113.24752 32019 ft 464 kts 254°
2026-04-26 04:04 20.88974 113.18232 32018 ft 464 kts 254°
2026-04-26 04:04 20.86841 113.11721 32019 ft 464 kts 254°
2026-04-26 04:05 20.84705 113.05207 32021 ft 464 kts 254°
2026-04-26 04:05 20.82562 112.98685 32001 ft 463 kts 254°
2026-04-26 04:06 20.80438 112.92230 32014 ft 462 kts 254°
2026-04-26 04:06 20.78306 112.85760 32019 ft 461 kts 254°
2026-04-26 04:07 20.76175 112.79297 32018 ft 461 kts 254°
2026-04-26 04:07 20.74043 112.72842 32019 ft 460 kts 254°
2026-04-26 04:08 20.71911 112.66397 32019 ft 460 kts 254°
2026-04-26 04:08 20.69774 112.59947 32019 ft 461 kts 254°
2026-04-26 04:09 20.67649 112.53541 32017 ft 461 kts 254°
2026-04-26 04:09 20.65504 112.47086 32013 ft 461 kts 254°
2026-04-26 04:10 20.63357 112.40631 32013 ft 461 kts 254°
2026-04-26 04:10 20.61203 112.34166 32014 ft 461 kts 254°
2026-04-26 04:11 20.59052 112.27719 32015 ft 461 kts 254°
2026-04-26 04:11 20.56913 112.21312 32012 ft 459 kts 254°
2026-04-26 04:11 20.56179 112.18030 32002 ft 453 kts 267°
2026-04-26 04:12 20.56203 112.14686 32019 ft 451 kts 277°
2026-04-26 04:12 20.57886 112.08301 32015 ft 448 kts 296°
2026-04-26 04:13 20.60695 112.02316 32014 ft 452 kts 296°
2026-04-26 04:13 20.63496 111.96274 32017 ft 454 kts 295°
2026-04-26 04:14 20.66256 111.90195 32013 ft 455 kts 295°
2026-04-26 04:14 20.69003 111.84095 32013 ft 455 kts 295°
2026-04-26 04:15 20.71739 111.78011 32011 ft 454 kts 295°
2026-04-26 04:15 20.74452 111.71974 32013 ft 453 kts 295°
2026-04-26 04:16 20.77180 111.65899 32017 ft 453 kts 295°
2026-04-26 04:16 20.79904 111.59822 32015 ft 453 kts 295°
2026-04-26 04:17 20.82488 111.53698 32004 ft 450 kts 286°
2026-04-26 04:17 20.83011 111.50396 32019 ft 452 kts 275°
2026-04-26 04:17 20.82968 111.47032 32022 ft 455 kts 267°
2026-04-26 04:17 20.82366 111.43700 32004 ft 459 kts 255°
2026-04-26 04:18 20.81284 111.40482 32024 ft 461 kts 253°
2026-04-26 04:18 20.79018 111.34043 32015 ft 463 kts 253°
2026-04-26 04:19 20.76805 111.27612 32010 ft 464 kts 253°
2026-04-26 04:19 20.74618 111.21122 32011 ft 464 kts 253°
2026-04-26 04:20 20.72446 111.14654 31799 ft 458 kts 253°
2026-04-26 04:20 20.71376 111.11468 30969 ft 461 kts 253°
2026-04-26 04:20 20.70290 111.08242 30141 ft 461 kts 253°
2026-04-26 04:20 20.69204 111.05022 29344 ft 458 kts 252°
2026-04-26 04:21 20.68128 111.01833 28567 ft 455 kts 252°
2026-04-26 04:21 20.67059 110.98666 27844 ft 451 kts 252°
2026-04-26 04:21 20.65983 110.95538 27134 ft 445 kts 249°
2026-04-26 04:21 20.64437 110.92680 26442 ft 447 kts 234°
2026-04-26 04:22 20.62273 110.90300 25808 ft 448 kts 223°
2026-04-26 04:22 20.59708 110.88418 25160 ft 449 kts 210°
2026-04-26 04:22 20.56826 110.87113 24537 ft 449 kts 204°
2026-04-26 04:22 20.53943 110.85852 23882 ft 447 kts 205°
2026-04-26 04:23 20.51087 110.84540 23156 ft 445 kts 204°
2026-04-26 04:23 20.48121 110.83641 22426 ft 441 kts 188°
2026-04-26 04:23 20.45073 110.83446 21862 ft 437 kts 184°
2026-04-26 04:23 20.42084 110.83300 21257 ft 434 kts 185°
2026-04-26 04:24 20.39330 110.83139 20676 ft 432 kts 185°
2026-04-26 04:24 20.36330 110.82933 20065 ft 431 kts 185°
2026-04-26 04:24 20.33566 110.82722 19501 ft 429 kts 185°
2026-04-26 04:24 20.30584 110.82488 18895 ft 428 kts 185°
2026-04-26 04:25 20.27622 110.82256 18291 ft 426 kts 185°
2026-04-26 04:25 20.24710 110.82022 17616 ft 420 kts 187°
2026-04-26 04:25 20.21914 110.81269 16986 ft 414 kts 206°
2026-04-26 04:25 20.19557 110.79565 16414 ft 408 kts 225°
2026-04-26 04:26 20.17769 110.77239 15804 ft 406 kts 238°
2026-04-26 04:26 20.16551 110.74541 15163 ft 404 kts 253°
2026-04-26 04:26 20.15954 110.71620 14559 ft 403 kts 259°
2026-04-26 04:26 20.15423 110.68693 13927 ft 403 kts 258°
2026-04-26 04:27 20.14852 110.65773 13277 ft 402 kts 258°
2026-04-26 04:27 20.14277 110.62879 12673 ft 392 kts 258°
2026-04-26 04:27 20.13730 110.60146 12008 ft 364 kts 257°
2026-04-26 04:27 20.13219 110.57592 11444 ft 341 kts 257°
2026-04-26 04:28 20.12731 110.55164 11005 ft 335 kts 257°
2026-04-26 04:28 20.12253 110.52787 10867 ft 329 kts 257°
2026-04-26 04:28 20.11777 110.50429 10712 ft 321 kts 257°
2026-04-26 04:28 20.11315 110.48141 10558 ft 312 kts 257°
2026-04-26 04:29 20.10867 110.45921 10430 ft 302 kts 257°
2026-04-26 04:29 20.10432 110.43767 10301 ft 293 kts 257°
2026-04-26 04:29 20.10012 110.41681 10181 ft 284 kts 257°
2026-04-26 04:29 20.09601 110.39648 9980 ft 280 kts 257°
2026-04-26 04:30 20.09187 110.37607 9511 ft 285 kts 257°
2026-04-26 04:30 20.08761 110.35528 9022 ft 289 kts 257°
2026-04-26 04:30 20.08333 110.33448 8531 ft 293 kts 257°
2026-04-26 04:30 20.07895 110.31316 8067 ft 297 kts 257°
2026-04-26 04:31 20.07451 110.29160 7593 ft 300 kts 257°
2026-04-26 04:31 20.07002 110.26976 7130 ft 303 kts 257°
2026-04-26 04:31 20.06549 110.24777 6672 ft 306 kts 257°
2026-04-26 04:31 20.06092 110.22555 6204 ft 308 kts 257°
2026-04-26 04:32 20.05633 110.20326 5723 ft 310 kts 257°
2026-04-26 04:32 20.05169 110.18082 5223 ft 309 kts 256°
2026-04-26 04:32 20.04352 110.16020 4715 ft 304 kts 232°
2026-04-26 04:32 20.02768 110.14554 4224 ft 304 kts 207°
2026-04-26 04:33 20.00777 110.13815 3754 ft 304 kts 188°
2026-04-26 04:33 19.98680 110.13933 3264 ft 304 kts 162°
2026-04-26 04:33 19.96866 110.15028 2959 ft 298 kts 136°
2026-04-26 04:33 19.95762 110.16816 2894 ft 284 kts 109°
2026-04-26 04:34 19.95401 110.18779 2884 ft 262 kts 97°
2026-04-26 04:34 19.95303 110.20559 2841 ft 220 kts 92°
2026-04-26 04:34 19.95300 110.22045 2889 ft 186 kts 91°
2026-04-26 04:34 19.95307 110.23340 2898 ft 163 kts 91°
2026-04-26 04:35 19.95312 110.24454 2883 ft 140 kts 92°
2026-04-26 04:35 19.95315 110.25485 2896 ft 142 kts 92°
2026-04-26 04:35 19.95319 110.26550 2905 ft 145 kts 92°
2026-04-26 04:35 19.95323 110.27624 2905 ft 145 kts 92°
2026-04-26 04:36 19.95326 110.28695 2888 ft 144 kts 92°
2026-04-26 04:36 19.95329 110.29781 2726 ft 148 kts 92°
2026-04-26 04:36 19.95332 110.30858 2528 ft 143 kts 91°
2026-04-26 04:36 19.95335 110.31905 2346 ft 141 kts 91°
2026-04-26 04:37 19.95338 110.32939 2167 ft 140 kts 91°
2026-04-26 04:37 19.95341 110.33988 2005 ft 143 kts 91°
2026-04-26 04:37 19.95344 110.35042 1818 ft 142 kts 91°
2026-04-26 04:37 19.95347 110.36082 1623 ft 139 kts 91°
2026-04-26 04:38 19.95349 110.37102 1445 ft 139 kts 91°
2026-04-26 04:38 19.95351 110.37786 1342 ft 141 kts 91°
2026-04-26 04:38 19.95354 110.38833 1153 ft 142 kts 91°
2026-04-26 04:38 19.95357 110.39878 967 ft 140 kts 90°
2026-04-26 04:39 19.95361 110.40908 801 ft 141 kts 90°
2026-04-26 04:39 19.95363 110.41948 622 ft 140 kts 89°
2026-04-26 04:39 19.95366 110.42969 456 ft 136 kts 90°
2026-04-26 04:39 19.95371 110.43983 275 ft 138 kts 89°
2026-04-26 04:40 19.95374 110.45007 98 ft 138 kts 91°
2026-04-26 04:40 19.95374 110.45996 63 ft 122 kts 90°
2026-04-26 04:40 19.95376 110.46736 62 ft 78 kts 90°
2026-04-26 04:40 19.95378 110.47160 67 ft 46 kts 89°
2026-04-26 04:41 19.95383 110.47413 60 ft 22 kts 91°
2026-04-26 04:41 19.95326 110.47485 66 ft 12 kts 160°
2026-04-26 04:41 19.95316 110.47488 62 ft 2 kts 162°
2026-04-26 04:41 19.95291 110.47493 59 ft 5 kts 171°
2026-04-26 04:42 19.95248 110.47495 59 ft 7 kts 179°
2026-04-26 04:42 19.95182 110.47495 62 ft 11 kts 179°
2026-04-26 04:42 19.95091 110.47496 59 ft 15 kts 179°
2026-04-26 04:42 19.94980 110.47487 63 ft 17 kts 211°
2026-04-26 04:43 19.94956 110.47364 67 ft 19 kts 268°
2026-04-26 04:43 19.94954 110.47211 65 ft 22 kts 271°
2026-04-26 04:43 19.94955 110.47035 66 ft 25 kts 268°
2026-04-26 04:43 19.94954 110.46842 65 ft 23 kts 275°
2026-04-26 04:44 19.95045 110.46793 58 ft 16 kts
2026-04-26 04:44 19.95123 110.46729 57 ft 17 kts 273°
2026-04-26 04:44 19.95124 110.46606 57 ft 17 kts 269°
2026-04-26 04:44 19.95123 110.46482 57 ft 17 kts 269°
2026-04-26 04:45 19.95123 110.46358 56 ft 17 kts 271°
2026-04-26 04:45 19.95071 110.46277 57 ft 9 kts 191°
2026-04-26 04:45 19.95037 110.46253 55 ft 0 kts 229°
2026-04-26 04:45 19.95033 110.46248 56 ft 2 kts 229°
2026-04-26 04:46 19.95017 110.46226 54 ft 8 kts 239°
2026-04-26 04:46 19.94993 110.46175 59 ft 1 kts 243°
2026-04-26 04:46 19.94989 110.46167 60 ft 0 kts 243°